TIME,DELAY(SENSOR),PRES,OXYGEN,RAWTEMP,T(OPTODE),TCPHASE,FLUOR,BETA(BETA700),BETA(BETA412),BETA(BETA440),CDOM,C(CSC),ED(ED411.90),ED(ED443.80),ED(ED489.40),ED(ED554.70),LU(LU412.20),LU(LU443.80),LU(LU489.40),LU(LU555.00),COMP,TILTX,TILTY,CHECK
1358028335,5805,858.2299804687500000,164.1134033203125000,425.5682067871094000,9.8219060897827150,39.0777015686035160,53,103,97,81,80,12384,2146962733,2147519716,2147287853,2147500635,2147088073,2146929179,2147707053,2147124425,1470,-1,9,12894
1358031931,5807,975.7299804687500000,195.5023040771484400,500.5173950195312500,7.5134401321411130,38.1890907287597660,53,100,99,78,81,12380,2146964086,2147514953,2147297682,2147515867,2147090413,2146923840,2147719469,2147122678,442,-1,9,4067
1358035531,5809,996.9600219726562000,202.1566009521484400,509.5375976562500000,7.2332930564880370,37.9335594177246100,51,101,97,79,81,12375,2146963693,2147515666,2147299291,2147517970,2147090971,2146926518,2147726272,2147122112,37,-1,9,48117
1358039131,5807,999.8699951171875000,207.1119995117187500,511.7661132812500000,7.1639919281005860,37.6738700866699200,52,100,97,79,81,12378,2146961691,2147521051,2147298157,2147514550,2147087606,2146920987,2147722587,2147122130,3278,-1,9,15698
1358042731,5807,1002.2800292968750000,208.4223937988281200,514.0112304687500000,7.0941448211669920,37.6352195739746100,52,101,96,79,80,12379,2146961883,2147518866,2147298761,2147518674,2147087826,2146921746,2147724763,2147124717,3462,-1,9,43760
1358046331,5804,1004.6699829101562000,210.2617950439453000,515.0919189453125000,7.0605077743530270,37.5460586547851560,53,100,98,78,80,12377,2146961206,2147518336,2147298633,2147519186,2147087926,2146922797,2147723117,2147121627,3486,-1,9,43674
1358049931,5805,1004.0399780273438000,211.0332031250000000,516.4832153320312000,7.0171961784362790,37.5256690979003900,52,99,98,78,80,12377,2146961654,2147514294,2147296978,2147517750,2147086646,2146926198,2147724480,2147124150,588,-1,9,4170
1358053531,5804,1005.9600219726562000,210.4481048583984400,516.9780883789062000,7.0017809867858890,37.5685005187988300,52,99,96,80,81,12379,2146963867,2147518500,2147298249,2147515940,2147089033,2146923876,2147722944,2147118985,3316,-1,9,27528
1358057131,5806,1006.4099731445312000,210.4028930664062500,517.3571777343750000,6.9899778366088870,37.5778999328613300,53,101,98,79,82,12372,2146962432,2147515858,2147302400,2147517796,2147089462,2146922432,2147723437,2147121517,3475,-1,9,16398
1358060731,5804,1006.5399780273438000,212.7176971435547000,518.3021850585938000,6.9605450630187990,37.4603004455566400,52,101,97,79,81,12375,2146965083,2147517988,2147297792,2147515401,2147088457,2146924498,2147723346,2147125293,2784,-1,9,19110
1358064331,5808,1008.1300048828125000,212.1905975341797000,517.8433837890625000,6.9748339653015140,37.4818382263183600,52,103,97,79,80,12372,2146962861,2147519862,2147296585,2147517522,2147089700,2146917129,2147729929,2147121874,194,-1,9,25582
1358067931,5805,1011.5300292968750000,212.0637969970703000,517.5006713867188000,6.9855089187622070,37.4832801818847660,52,98,98,78,81,12372,2146962166,2147515629,2147298331,2147520073,2147089499,2146923894,2147721462,2147123062,3368,-1,9,9969
1358071531,5806,1008.5499877929688000,209.7839965820312500,517.5723266601562000,6.9832792282104490,37.6180381774902340,52,99,97,79,81,12371,2146960530,2147514505,2147297728,2147517046,2147084854,2146923565,2147723520,2147122587,3481,-1,9,64229
1358075131,5803,1006.5599975585938000,212.6652069091797000,518.5792846679688000,6.9519100189208980,37.4675788879394500,52,100,96,80,80,12370,2146962130,2147519360,2147297856,2147518445,2147088274,2146924105,2147721508,2147123035,3183,-1,9,32960
1358078731,5806,1013.5300292968750000,212.6721038818359400,517.4639892578125000,6.9866509437561035,37.4472808837890600,53,100,97,79,81,12369,2146961682,2147516416,2147298486,2147518272,2147089088,2146925430,2147720850,2147121563,3435,-1,9,6209
1358082331,5806,1017.2199707031250000,210.4154968261718800,516.4735107421875000,7.0174961090087890,37.5611610412597660,52,102,99,81,81,12368,2146959606,2147517796,2147298870,2147517842,2147086006,2146928594,2147723392,2147123584,3220,-1,9,48774
1358085931,5807,1017.5200195312500000,211.0717926025390600,516.3850708007812000,7.0202469825744630,37.5213012695312500,53,102,97,79,80,12365,2146960265,2147517339,2147298889,2147515849,2147088603,2146926756,2147722532,2147120393,291,-1,9,57722
1358089531,5808,1016.0800170898438000,209.6806030273437500,516.2512817382812000,7.0244150161743160,37.6005897521972660,53,102,99,79,81,12368,2146961609,2147519213,2147297581,2147518308,2147089170,2146922944,2147723264,2147119012,68,0,8,2097
1358093131,5804,1014.6199951171875000,211.1159973144531200,516.9802856445312000,7.0017161369323730,37.5294494628906250,51,103,97,79,81,12366,2146962569,2147519881,2147297993,2147518473,2147088822,2146926921,2147719808,2147123181,3557,-1,9,32548
1358096731,5805,1011.5800170898438000,212.5043029785156200,519.0759277343750000,6.9364399909973145,37.4854393005371100,52,100,97,78,80,12361,2146962733,2147520219,2147299309,2147517430,2147088283,2146925760,2147721874,2147119570,3413,-1,9,47393
1358100331,5809,1011.1500244140625000,211.8390045166015600,518.4570922851562000,6.9557189941406250,37.5133514404296900,52,102,97,79,81,12366,2146965549,2147519643,2147298779,2147516626,2147089371,2146924032,2147721334,2147121984,34,-1,8,50841
1358103931,5808,1011.1199951171875000,213.9685974121093800,519.6370849609375000,6.9189558029174805,37.4106788635253900,52,100,97,79,81,12370,2146960393,2147517622,2147299456,2147517760,2147088713,2146922541,2147720649,2147124342,103,-1,9,12506
1358107531,5808,1011.2999877929688000,213.8883972167968800,519.6223144531250000,6.9194149971008300,37.4156990051269500,52,99,98,80,80,12368,2146959744,2147516955,2147299410,2147518729,2147087533,2146919963,2147723117,2147121682,274,-1,9,15027
1358111131,5804,1014.6599731445312000,213.7397003173828000,519.5114746093750000,6.9228692054748535,37.4220390319824200,52,104,96,79,81,12369,2146960091,2147519908,2147298971,2147516352,2147089289,2146924059,2147722697,2147121508,3335,-1,9,35797
1358114731,5809,1011.2600097656250000,213.2321014404297000,520.0993041992188000,6.9045519828796390,37.4620018005371100,52,100,97,78,81,12367,2146958400,2147519259,2147299355,2147517952,2147088621,2146919259,2147722249,2147122944,50,0,9,23422
1358118331,5807,1010.7100219726562000,212.2026062011718800,520.8759155273438000,6.8803501129150390,37.5354804992675800,52,98,98,79,80,12367,2146962806,2147519981,2147298669,2147517888,2147089883,2146919021,2147723977,2147122651,3464,-1,9,61845
1358121931,5804,1014.5700073242188000,213.6576995849609400,519.4987792968750000,6.9232649803161620,37.4266815185546900,52,105,98,78,81,12368,2146963346,2147519899,2147298002,2147517888,2147089088,2146921581,2147721600,2147121645,3471,-1,9,34561
1358125531,5807,1017.9500122070312000,213.2239074707031200,518.9907226562500000,6.9390959739685060,37.4429206848144500,52,101,97,78,81,12363,2146961517,2147514761,2147297673,2147514505,2147088118,2146919524,2147723766,2147123840,3438,-1,9,3366
1358129131,5804,1014.1900024414062000,211.9241027832031200,518.9135742187500000,6.9414949417114260,37.5167617797851560,53,102,97,78,80,12365,2146961682,2147519332,2147298395,2147518427,2147090404,2146922404,2147722422,2147123684,3446,-1,9,50003
1358132731,5807,1017.5399780273438000,212.4994049072265600,519.3153076171875000,6.9289808273315430,37.4899101257324200,52,102,97,79,80,12364,2146962121,2147518729,2147299968,2147517851,2147086592,2146928960,2147724836,2147123474,3342,-1,9,13748
1358136331,5807,1018.2100219726562000,212.3480987548828000,519.3676147460938000,6.9273509979248050,37.5004806518554700,52,99,98,79,80,12364,2146965339,2147518555,2147298816,2147517412,2147089728,2146927113,2147725229,2147125174,3480,-1,9,19032
1358139931,5804,1014.8499755859375000,212.3851013183593800,519.3881835937500000,6.9267110824584960,37.4981002807617200,53,101,98,79,80,12364,2146961042,2147517037,2147300818,2147517577,2147089024,2146923492,2147717568,2147121316,3572,-1,9,17864
1358143531,5807,1013.9299926757812000,211.8795928955078000,520.2697143554688000,6.8992428779602050,37.5434989929199200,53,102,97,78,81,12364,2146960640,2147518464,2147298907,2147518921,2147088347,2146919323,2147721792,2147124169,153,-1,8,61865
1358147131,5807,1019.0999755859375000,212.7624053955078000,519.3546142578125000,6.9277558326721190,37.4755592346191400,52,99,97,79,81,12358,2146961846,2147517010,2147300635,2147516288,2147088886,2146920594,2147721389,2147123264,3527,-1,9,51483
1358150731,5806,1017.4400024414062000,212.5390930175781200,519.2548217773438000,6.9308657646179200,37.4868316650390600,52,102,97,80,81,12358,2146963273,2147515309,2147294345,2147517257,2147087451,2146919716,2147726912,2147123812,118,-1,9,7242
1358154331,5804,1014.4500122070312000,213.6748962402343800,519.9896240234375000,6.9079709053039550,37.4338912963867200,52,102,97,79,80,12344,2146957650,2147520804,2147297792,2147516242,2147087515,2146921243,2147722505,2147120658,3369,-1,9,65212
1358157931,5808,1015.8800048828125000,212.3728027343750000,520.4968261718750000,6.8921627998352050,37.5185813903808600,53,107,97,79,81,12361,2146964278,2147517997,2147296603,2147517449,2147085869,2146926646,2147725869,2147120530,161,0,9,6276
1358161531,5806,1012.8499755859375000,213.1250000000000000,520.7609252929688000,6.8839321136474610,37.4800109863281250,53,100,97,80,81,12359,2146962834,2147517202,2147296978,2147514249,2147085549,2146924233,2147724672,2147120356,360,-1,9,29288
1358165131,5804,1017.7700195312500000,213.2884979248047000,520.6593017578125000,6.8871002197265625,37.4685211181640600,52,103,97,77,81,12356,2146962102,2147515803,2147296713,2147518482,2147089206,2146921764,2147720987,2147123474,3447,-1,9,41498
1358168731,5808,1017.9400024414062000,214.1454925537109400,520.6597290039062000,6.8870878219604490,37.4187011718750000,52,101,98,79,81,12355,2146963136,2147513563,2147297563,2147516992,2147086582,2146922614,2147720658,2147121691,395,-1,9,19583
1358172331,5806,1019.9500122070312000,213.4259948730468800,520.5819091796875000,6.8895111083984375,37.4594497680664060,52,103,99,78,81,12355,2146958875,2147512877,2147297636,2147516754,2147087734,2146926619,2147722761,2147122267,3323,-1,9,18646
1358173555,5804,1019.6300048828125000,213.5962982177734400,519.4484252929688000,6.9248328208923340,37.4290199279785160,52,102,98,79,81,12357,2146961947,2147518299,2147302089,2147518180,2147090870,2146930148,2147721956,2147127698,3000,-1,9,12894
